AAL2068 KCLT-KLGA

Flight info

Callsign AAL2068
Flight time N/A
Altitude 37000
Route BARMY5 RDU NOWAE Q87 HURTS PROUD2
Aircraft B738/M-SDE2E3FGHIRWXY/LB1

Departure

Time 2026-05-08 01:12
Airport Charlotte Douglas International Airport (KCLT)

Arrival

Time N/A
Airport LaGuardia Airport (KLGA)
Time Latitude Longitude Altitude Speed Heading
2026-05-08 00:47 35.21983 -80.94700 731 ft 0 kts 19°
2026-05-08 01:01 35.21969 -80.94705 730 ft 3 kts 19°
2026-05-08 01:01 35.21947 -80.94714 730 ft 3 kts 11°
2026-05-08 01:01 35.21928 -80.94716 731 ft 3 kts 346°
2026-05-08 01:02 35.21913 -80.94708 731 ft 3 kts 301°
2026-05-08 01:02 35.21909 -80.94688 730 ft 3 kts 266°
2026-05-08 01:02 35.21910 -80.94667 730 ft 0 kts 266°
2026-05-08 01:06 35.21910 -80.94670 731 ft 2 kts 266°
2026-05-08 01:06 35.21907 -80.94743 731 ft 13 kts 266°
2026-05-08 01:07 35.21886 -80.94853 731 ft 13 kts 242°
2026-05-08 01:07 35.21867 -80.94960 732 ft 13 kts 265°
2026-05-08 01:07 35.21820 -80.95039 733 ft 15 kts 185°
2026-05-08 01:07 35.21690 -80.95025 733 ft 20 kts 175°
2026-05-08 01:08 35.21553 -80.95014 732 ft 19 kts 176°
2026-05-08 01:08 35.21421 -80.95004 732 ft 19 kts 175°
2026-05-08 01:08 35.21292 -80.94993 732 ft 18 kts 175°
2026-05-08 01:08 35.21168 -80.94982 732 ft 18 kts 176°
2026-05-08 01:09 35.21049 -80.94972 730 ft 17 kts 176°
2026-05-08 01:09 35.20920 -80.94960 722 ft 20 kts 174°
2026-05-08 01:09 35.20781 -80.94949 731 ft 20 kts 176°
2026-05-08 01:09 35.20647 -80.94938 732 ft 19 kts 175°
2026-05-08 01:10 35.20517 -80.94927 732 ft 18 kts 176°
2026-05-08 01:10 35.20392 -80.94916 732 ft 18 kts 175°
2026-05-08 01:10 35.20271 -80.94905 732 ft 17 kts 176°
2026-05-08 01:10 35.20154 -80.94896 732 ft 17 kts 176°
2026-05-08 01:11 35.20042 -80.94896 732 ft 16 kts 203°
2026-05-08 01:11 35.20009 -80.95016 734 ft 15 kts 263°
2026-05-08 01:11 35.20078 -80.95090 735 ft 17 kts 351°
2026-05-08 01:11 35.20421 -80.95119 738 ft 86 kts 355°
2026-05-08 01:12 35.21244 -80.95188 737 ft 149 kts 356°
2026-05-08 01:12 35.22379 -80.95315 1199 ft 169 kts 351°
2026-05-08 01:12 35.23469 -80.95933 1985 ft 181 kts 329°
2026-05-08 01:12 35.24488 -80.96929 2623 ft 197 kts 324°
2026-05-08 01:13 35.25709 -80.97830 2870 ft 215 kts 350°
2026-05-08 01:13 35.27177 -80.97534 3449 ft 225 kts 28°
2026-05-08 01:13 35.28255 -80.96051 3879 ft 253 kts 63°
2026-05-08 01:13 35.28598 -80.93856 4536 ft 271 kts 81°
2026-05-08 01:14 35.28798 -80.91533 5346 ft 279 kts 82°
2026-05-08 01:14 35.29007 -80.89117 6049 ft 291 kts 83°
2026-05-08 01:14 35.29222 -80.86611 6794 ft 299 kts 84°
2026-05-08 01:14 35.29438 -80.84056 7605 ft 304 kts 84°
2026-05-08 01:15 35.29655 -80.81478 8332 ft 313 kts 84°
2026-05-08 01:15 35.29881 -80.78807 9111 ft 319 kts 85°
2026-05-08 01:15 35.30111 -80.76076 9881 ft 326 kts 85°
2026-05-08 01:15 35.30344 -80.73299 10545 ft 334 kts 84°
2026-05-08 01:16 35.30588 -80.70363 10759 ft 360 kts 84°
2026-05-08 01:16 35.30846 -80.67254 11208 ft 374 kts 84°
2026-05-08 01:16 35.31112 -80.64044 11839 ft 382 kts 84°
2026-05-08 01:16 35.31383 -80.60785 12577 ft 387 kts 84°
2026-05-08 01:17 35.31656 -80.57481 13293 ft 393 kts 83°
2026-05-08 01:17 35.31933 -80.54129 13989 ft 398 kts 83°
2026-05-08 01:17 35.32213 -80.50733 14620 ft 404 kts 83°
2026-05-08 01:17 35.32496 -80.47282 15241 ft 410 kts 83°
2026-05-08 01:18 35.32782 -80.43784 15846 ft 416 kts 83°
2026-05-08 01:18 35.33072 -80.40228 16446 ft 423 kts 83°
2026-05-08 01:18 35.33365 -80.36618 17044 ft 429 kts 83°
2026-05-08 01:18 35.33660 -80.32958 17630 ft 435 kts 83°
2026-05-08 01:19 35.33959 -80.29241 18222 ft 441 kts 82°
2026-05-08 01:19 35.34261 -80.25477 18699 ft 448 kts 83°
2026-05-08 01:19 35.34567 -80.21649 19171 ft 454 kts 83°
2026-05-08 01:19 35.34874 -80.17779 19690 ft 459 kts 83°
2026-05-08 01:20 35.35184 -80.13856 20143 ft 466 kts 83°
2026-05-08 01:20 35.35497 -80.09888 20618 ft 471 kts 83°
2026-05-08 01:20 35.35812 -80.05860 21089 ft 477 kts 84°
2026-05-08 01:20 35.36130 -80.01793 21556 ft 482 kts 84°
2026-05-08 01:21 35.36450 -79.97681 22015 ft 487 kts 84°